User: anonymous   Login
Location: Unspecified
(0.0000°N, 0.0000°E)
Time: 23:17:52
(UTC+00:00)
Language:

STARLINK-5317 - Orbit

View from above orbital plane
View from above orbital plane
View from above satellite
View from above satellite

Ground track
Ground track

The orbit is defined by the following mean orbital elements,

1 55283U          26145.44121809 +.00000000 +00000-0 -45838-4 0 00006
2 55283  69.9997 210.8922 0003406 265.2152  94.8618 14.98333774    09
Epoch (UTC): 25 May 2026 10:35:21
Eccentricity: 0.0003406
inclination: 69.9997°
perigee height: 570 km
apogee height: 574 km
right ascension of ascending node: 210.8922°
argument of perigee: 265.2152°
revolutions per day: 14.98333774
mean anomaly at epoch: 94.8618°

The dashed part of the orbit path shows where the satellite is in the earth's shadow,  

DLR